Terug naar catalogus

COSMOS 447

ActiefMilitairLEO
NORAD 5550·PAYLOAD·🇷🇺 Russia

Gelanceerd Oct 13, 1971 vanaf Plesetsk Cosmodrome

Loading…

Volgende Passages (komende 24 uur)

TLE

VersSource: Space-Track

Epoch: Sep 14, 2026, 13:54 UTC

1  5550U 71086D   26257.57921638 -.00000004  00000-0  75667-4 0  9990
2  5550  74.0291 190.0853 0066135 189.4464 346.1930 12.50624867507372

Volg COSMOS 447 in realtime met AllMySat

Download on the App Store